W5XO-8 Weather Reports


Display with metric or nautical units.
time (UTC)temp
F
wind
direction
speed
MPH
gust
MPH
rain 1hr
in
rain 24hr
in
rain mn
in
humidity
%
barometer
mb
20230127153510 41 200 0.0 0.0 0.00 0.00 0.00 79 1023.8
20230127153038 41 201 0.0 0.0 0.00 0.00 0.00 79 1023.8
20230127152528 41 201 0.0 0.0 0.00 0.00 0.00 79 1023.5
20230127152033 41 194 0.0 0.0 0.00 0.00 0.00 79 1023.5
20230127151535 40 194 0.0 0.0 0.00 0.00 0.00 78 1023.5
20230127151039 40 194 0.0 0.0 0.00 0.00 0.00 78 1023.4
20230127150030 40 186 0.0 0.0 0.00 0.00 0.00 77 1023.4
20230127145532 40 189 0.0 0.0 0.00 0.00 0.00 80 1023.3
20230127145035 39 200 0.0 0.0 0.00 0.00 0.00 80 1023.3
20230127144542 39 200 0.0 0.0 0.00 0.00 0.00 78 1023.3
20230127144048 39 200 0.0 0.0 0.00 0.00 0.00 77 1023.0
20230127143555 39 200 0.0 0.0 0.00 0.00 0.00 76 1023.0
20230127143140 39 200 0.0 0.0 0.00 0.00 0.00 75 1023.0
20230127142601 40 200 0.0 0.0 0.00 0.00 0.00 75 1022.8
20230127142002 40 200 0.0 0.0 0.00 0.00 0.00 74 1022.8
20230127141505 39 200 0.0 0.0 0.00 0.00 0.00 75 1022.8
20230127141009 39 200 0.0 0.0 0.00 0.00 0.00 76 1022.8
20230127140106 38 200 0.0 0.0 0.00 0.00 0.00 77 1022.8
20230127135503 38 200 0.0 0.0 0.00 0.00 0.00 76 1022.8
20230127135007 38 200 0.0 0.0 0.00 0.00 0.00 76 1022.8
20230127134525 38 200 0.0 0.0 0.00 0.00 0.00 76 1022.8
20230127134030 38 200 0.0 0.0 0.00 0.00 0.00 76 1022.5
20230127133529 38 200 0.0 0.0 0.00 0.00 0.00 76 1022.5
20230127133038 37 200 0.0 0.0 0.00 0.00 0.00 76 1022.5
20230127132537 37 200 0.0 0.0 0.00 0.00 0.00 76 1022.5
20230127132042 38 200 0.0 0.0 0.00 0.00 0.00 75 1022.5
20230127131553 38 200 0.0 0.0 0.00 0.00 0.00 75 1022.5
20230127131049 38 200 0.0 0.0 0.00 0.00 0.00 74 1022.7
20230127130044 38 200 0.0 0.0 0.00 0.00 0.00 74 1022.7
20230127125542 38 200 0.0 0.0 0.00 0.00 0.00 73 1022.4
20230127125047 38 200 0.0 0.0 0.00 0.00 0.00 73 1022.4
20230127124551 38 200 0.0 0.0 0.00 0.00 0.00 73 1022.4
20230127124055 38 200 0.0 0.0 0.00 0.00 0.00 74 1022.3
20230127123601 38 200 0.0 0.0 0.00 0.00 0.00 74 1022.3
20230127123004 38 200 0.0 0.0 0.00 0.00 0.00 74 1022.3
20230127122521 38 200 0.0 0.0 0.00 0.00 0.00 74 1022.2
20230127122021 38 200 0.0 0.0 0.00 0.00 0.00 74 1022.2
20230127121527 38 200 0.0 0.0 0.00 0.00 0.00 74 1022.2
20230127121031 38 200 0.0 0.0 0.00 0.00 0.00 74 1022.2
20230127120505 38 200 0.0 0.0 0.00 0.00 0.00 74 1022.2
20230127120020 38 200 0.0 0.0 0.00 0.00 0.00 74 1022.2
20230127115525 38 200 0.0 0.0 0.00 0.00 0.00 74 1022.1
20230127115019 38 199 0.0 0.0 0.00 0.00 0.00 74 1022.1
20230127114549 38 197 0.0 0.0 0.00 0.00 0.00 74 1022.1
20230127114040 38 194 0.0 0.0 0.00 0.00 0.00 74 1022.1
20230127113542 38 195 0.0 0.0 0.00 0.00 0.00 74 1022.1
20230127113048 38 200 0.0 0.0 0.00 0.00 0.00 73 1022.1
20230127112557 38 200 0.0 0.0 0.00 0.00 0.00 74 1022.1
20230127112057 38 200 0.0 0.0 0.00 0.00 0.00 74 1022.1
20230127111502 38 200 0.0 0.0 0.00 0.00 0.00 74 1022.1
20230127111009 38 200 0.0 0.0 0.00 0.00 0.00 74 1022.1
20230127110057 38 199 0.0 0.0 0.00 0.00 0.00 75 1022.1
20230127105601 38 198 0.0 0.0 0.00 0.00 0.00 76 1022.2
20230127105002 38 198 0.0 0.0 0.00 0.00 0.00 76 1022.2
20230127104521 37 198 0.0 0.0 0.00 0.00 0.00 77 1022.2
20230127104023 37 198 0.0 0.0 0.00 0.00 0.00 78 1022.2
20230127103528 37 196 0.0 0.0 0.00 0.00 0.00 78 1022.2
20230127103003 37 197 0.0 0.0 0.00 0.00 0.00 78 1022.2
20230127102517 37 196 0.0 0.0 0.00 0.00 0.00 78 1022.2
20230127102020 37 189 0.0 0.0 0.00 0.00 0.00 77 1022.2
20230127101517 37 186 0.0 0.0 0.00 0.00 0.00 76 1022.2
20230127101028 38 183 0.0 0.0 0.00 0.00 0.00 75 1022.3
20230127100500 38 188 0.0 0.0 0.00 0.00 0.00 75 1022.3
20230127100012 39 192 0.0 0.0 0.00 0.00 0.00 74 1022.3
20230127095509 39 196 0.0 0.0 0.00 0.00 0.00 74 1022.4
20230127095012 39 196 0.0 0.0 0.00 0.00 0.00 74 1022.4
20230127094530 39 196 0.0 0.0 0.00 0.00 0.00 74 1022.4
20230127094033 39 196 0.0 0.0 0.00 0.00 0.00 74 1022.3
20230127093538 39 202 0.0 0.0 0.00 0.00 0.00 73 1022.3
20230127093043 40 202 0.0 0.0 0.00 0.00 0.00 72 1022.3
20230127092546 39 202 0.0 0.0 0.00 0.00 0.00 73 1022.2
20230127092054 39 203 0.0 0.0 0.00 0.00 0.00 74 1022.2
20230127091605 38 200 0.0 0.0 0.00 0.00 0.00 75 1022.2
20230127091101 38 204 0.0 0.0 0.00 0.00 0.00 76 1022.5
20230127090053 38 191 0.0 0.0 0.00 0.00 0.00 77 1022.5
20230127085557 38 188 0.0 0.0 0.00 0.00 0.00 76 1022.7
20230127085101 38 187 0.0 0.0 0.00 0.00 0.00 75 1022.7
20230127084505 38 187 0.0 0.0 0.00 0.00 0.00 75 1022.7
20230127084022 38 185 0.0 0.0 0.00 0.00 0.00 75 1022.6
20230127083508 39 184 0.0 0.0 0.00 0.00 0.00 74 1022.6
20230127083018 39 184 0.0 0.0 0.00 0.00 0.00 74 1022.6
20230127082523 39 183 0.0 0.0 0.00 0.00 0.00 73 1022.8
20230127082018 39 184 0.0 0.0 0.00 0.00 0.00 74 1022.8
20230127081535 39 184 0.0 0.0 0.00 0.00 0.00 74 1022.8
20230127081036 39 183 0.0 0.0 0.00 0.00 0.00 74 1022.8
20230127080513 39 183 0.0 0.0 0.00 0.00 0.00 74 1022.8
20230127080017 39 183 0.0 0.0 0.00 0.00 0.00 74 1022.8
20230127075531 39 183 0.0 0.0 0.00 0.00 0.00 74 1023.0
20230127075036 39 183 0.0 0.0 0.00 0.00 0.00 74 1023.0
20230127074558 39 183 0.0 0.0 0.00 0.00 0.00 73 1023.0
20230127074046 39 182 0.0 0.0 0.00 0.00 0.00 73 1022.9
20230127073551 40 182 0.0 0.0 0.00 0.00 0.00 71 1022.9
20230127073106 41 184 0.0 0.0 0.00 0.00 0.00 71 1022.9
20230127072601 41 184 0.0 0.0 0.00 0.00 0.00 70 1023.1
20230127072006 42 188 0.0 0.0 0.00 0.00 0.00 70 1023.1
20230127071506 41 188 0.0 0.0 0.00 0.00 0.00 70 1023.1
20230127071023 41 186 0.0 0.0 0.00 0.00 0.00 71 1023.2
20230127070003 41 187 0.0 0.0 0.00 0.00 0.00 71 1023.2
20230127065508 41 186 0.0 0.0 0.00 0.00 0.00 72 1023.2
20230127065023 40 186 0.0 0.0 0.00 0.00 0.00 71 1023.2
20230127064541 41 186 0.0 0.0 0.00 0.00 0.00 70 1023.2
20230127064035 41 185 0.0 0.0 0.00 0.00 0.00 69 1023.2
20230127063542 42 185 0.0 0.0 0.00 0.00 0.00 69 1023.2
20230127063044 42 186 0.0 0.0 0.00 0.00 0.00 68 1023.2
20230127062549 43 187 0.0 0.0 0.00 0.00 0.00 67 1023.3
20230127062059 42 188 0.0 0.0 0.00 0.00 0.00 68 1023.3
20230127061610 42 188 0.0 0.0 0.00 0.00 0.00 68 1023.3
20230127061102 42 188 0.0 0.0 0.00 0.00 0.00 68 1023.3
20230127060051 43 190 0.0 0.0 0.00 0.00 0.00 66 1023.3
20230127055551 43 190 0.0 0.0 0.00 0.00 0.00 66 1023.4
20230127055100 43 191 0.0 0.0 0.00 0.00 0.00 67 1023.4
20230127054602 43 190 0.0 0.0 0.00 0.00 0.00 68 1023.4
20230127054103 43 190 0.0 0.0 0.00 0.00 0.00 68 1023.7
20230127053504 43 190 0.0 0.0 0.00 0.00 0.00 67 1023.7
20230127053018 43 190 0.0 0.0 0.00 0.00 0.00 67 1023.7
20230127052524 42 190 0.0 0.0 0.00 0.00 0.00 68 1023.8
20230127052025 42 190 0.0 0.0 0.00 0.00 0.00 70 1023.8
20230127051532 42 190 0.0 0.0 0.00 0.00 0.00 69 1023.8
20230127051035 42 190 0.0 0.0 0.00 0.00 0.00 68 1023.8
20230127050025 43 190 0.0 0.0 0.00 0.00 0.00 67 1023.8
20230127045534 43 190 0.0 0.0 0.00 0.00 0.00 67 1023.8
20230127045037 44 190 0.0 0.0 0.00 0.00 0.00 67 1023.8
20230127044541 44 190 0.0 0.0 0.00 0.00 0.00 66 1023.8
20230127044045 44 190 0.0 0.0 0.00 0.00 0.00 66 1023.8
20230127043550 44 190 0.0 0.0 0.00 0.00 0.00 66 1023.8
20230127043055 44 190 0.0 0.0 0.00 0.00 0.00 66 1023.8
20230127042559 44 187 0.0 0.0 0.00 0.00 0.00 67 1023.9
20230127042105 44 184 0.0 0.0 0.00 0.00 0.00 68 1023.9
20230127041503 43 183 0.0 0.0 0.00 0.00 0.00 68 1023.9
20230127041007 43 184 0.0 0.0 0.00 0.00 0.00 69 1023.9
20230127040102 44 184 0.0 0.0 0.00 0.00 0.00 67 1023.9
20230127035546 44 184 0.0 0.0 0.00 0.00 0.00 67 1024.0
20230127035048 44 184 0.0 0.0 0.00 0.00 0.00 68 1024.0
20230127034551 44 185 0.0 0.0 0.00 0.00 0.00 68 1024.0
20230127034055 44 185 0.0 0.0 0.00 0.00 0.00 67 1024.0
20230127033559 44 184 0.0 0.0 0.00 0.00 0.00 67 1024.0
20230127033001 44 184 0.0 0.0 0.00 0.00 0.00 66 1024.0
20230127032518 45 181 0.0 0.0 0.00 0.00 0.00 66 1023.9
20230127032019 45 180 0.0 0.0 0.00 0.00 0.00 65 1023.9
20230127031513 45 179 0.0 0.0 0.00 0.00 0.00 64 1023.9
20230127031027 45 180 0.0 0.0 0.00 0.00 0.00 66 1023.9
20230127030504 45 180 0.0 0.0 0.00 0.00 0.00 66 1023.9
20230127030019 44 182 0.0 0.0 0.00 0.00 0.00 65 1023.9
20230127025513 45 185 0.0 0.0 0.00 0.00 0.00 62 1023.8
20230127025030 46 209 0.0 0.0 0.00 0.00 0.00 61 1023.8
20230127024531 46 227 0.0 0.0 0.00 0.00 0.00 60 1023.8
20230127024035 47 227 0.0 0.0 0.00 0.00 0.00 59 1023.6
20230127023539 48 227 0.0 0.0 0.00 0.00 0.00 58 1023.6
20230127023045 48 227 0.0 0.0 0.00 0.00 0.00 57 1023.6
20230127022551 48 227 0.0 0.0 0.00 0.00 0.00 57 1023.6
20230127022053 48 227 0.0 0.0 0.00 0.00 0.00 58 1023.6
20230127021558 48 227 0.0 0.0 0.00 0.00 0.00 58 1023.6
20230127021001 48 227 0.0 0.0 0.00 0.00 0.00 58 1023.7
20230127020057 48 227 0.0 0.0 0.00 0.00 0.00 57 1023.7
20230127015502 48 227 0.0 0.0 0.00 0.00 0.00 57 1023.5
20230127015007 49 227 0.0 0.0 0.00 0.00 0.00 56 1023.5
20230127014511 49 227 0.0 0.0 0.00 0.00 0.00 56 1023.5
20230127014014 50 227 0.0 0.0 0.00 0.00 0.00 54 1023.4
20230127013531 50 227 0.0 0.0 0.00 0.00 0.00 53 1023.4
20230127013040 50 231 0.0 0.0 0.00 0.00 0.00 54 1023.4
20230127012537 50 287 0.0 0.0 0.00 0.00 0.00 54 1023.4
20230127012043 49 287 0.0 0.0 0.00 0.00 0.00 55 1023.4
20230127011554 49 287 0.0 0.0 0.00 0.00 0.00 55 1023.4
20230127011053 49 287 0.0 0.0 0.00 0.00 0.00 56 1023.2
20230127010045 49 287 0.0 0.0 0.00 0.00 0.00 55 1023.2
20230127005553 49 287 0.0 0.0 0.00 0.00 0.00 55 1023.1
20230127005054 49 287 0.0 0.0 0.00 0.00 0.00 55 1023.1
20230127004559 50 287 0.0 0.0 0.00 0.00 0.00 54 1023.1
20230127004102 50 287 0.0 0.0 0.00 0.00 0.00 54 1023.1
20230127003502 50 287 0.0 0.0 0.00 0.00 0.00 54 1023.1
20230127003005 50 287 0.0 0.0 0.00 0.00 0.00 54 1023.1
20230127002521 51 287 0.0 0.0 0.00 0.00 0.00 53 1023.0
20230127002027 51 287 0.0 0.0 0.00 0.00 0.00 53 1023.0
20230127001531 51 287 0.0 0.0 0.00 0.00 0.00 52 1023.0
20230127001035 51 287 0.0 0.0 0.00 0.00 0.00 52 1022.9
20230127000031 52 287 0.0 0.0 0.00 0.00 0.00 51 1022.9
20230126235530 52 287 0.0 0.0 0.00 0.00 0.00 50 1023.0
20230126235035 52 287 0.0 0.0 0.00 0.00 0.00 50 1023.0
20230126234543 53 287 0.0 0.0 0.00 0.00 0.00 50 1023.0
20230126234047 53 287 0.0 0.0 0.00 0.00 0.00 50 1023.0
20230126233548 53 287 0.0 0.0 0.00 0.00 0.00 50 1023.0
20230126233059 53 279 0.0 0.0 0.00 0.00 0.00 51 1023.0
20230126232558 53 277 0.0 0.0 0.00 0.00 0.00 50 1023.1
20230126232001 53 307 0.0 0.0 0.00 0.00 0.00 50 1023.1
20230126231505 53 288 0.0 0.0 0.00 0.00 0.00 50 1023.1
20230126231008 53 285 0.0 0.0 0.00 0.00 0.00 49 1023.0
20230126230001 53 284 0.0 0.0 0.00 0.00 0.00 48 1023.0
20230126225506 53 311 0.0 0.0 0.00 0.00 0.00 49 1023.2
20230126225012 53 332 0.0 0.0 0.00 0.00 0.00 50 1023.2
20230126224527 53 323 0.0 0.0 0.00 0.00 0.00 49 1023.2
20230126224033 53 306 0.0 0.0 0.00 0.00 0.00 48 1023.1
20230126223535 53 281 0.0 0.0 0.00 0.00 0.00 49 1023.1
20230126223041 53 286 0.0 0.0 0.00 0.00 0.00 49 1023.1
20230126222544 53 267 0.0 0.0 0.00 0.00 0.00 50 1023.1
20230126222050 53 290 0.0 0.0 0.00 0.00 0.00 50 1023.1
20230126221556 54 266 0.0 0.0 0.00 0.00 0.00 48 1023.1
20230126221057 54 318 0.0 0.0 0.00 0.00 0.00 49 1023.2
20230126220050 53 331 0.0 0.0 0.00 0.00 0.00 48 1023.2
20230126215555 53 309 0.0 0.0 0.00 0.00 0.00 49 1023.0
20230126215059 53 321 0.0 0.0 0.00 0.00 0.00 51 1023.0
20230126214604 53 253 0.0 0.0 0.00 0.00 0.00 51 1023.0
20230126214017 53 272 0.0 0.0 0.00 0.00 0.00 50 1022.9
20230126213520 53 331 0.0 0.0 0.00 0.00 0.00 50 1022.9
20230126213027 53 347 0.0 0.0 0.00 0.00 0.00 49 1022.9
20230126212530 53 302 0.0 0.0 0.00 0.00 0.00 51 1022.9
20230126212035 53 263 0.0 0.0 0.00 0.00 0.00 50 1022.9
20230126211540 53 331 0.0 0.0 0.00 0.00 0.00 49 1022.9
20230126211044 53 360 0.0 0.0 0.00 0.00 0.00 48 1022.8
20230126210038 53 284 0.0 0.0 0.00 0.00 0.00 51 1022.8
20230126205543 53 271 0.0 0.0 0.00 0.00 0.00 51 1023.0
20230126205048 53 259 0.0 0.0 0.00 0.00 0.00 52 1023.0
20230126204551 52 261 0.0 0.0 0.00 0.00 0.00 52 1023.0
20230126204056 53 265 0.0 0.0 0.00 0.00 0.00 52 1023.2
20230126203601 52 308 0.0 0.0 0.00 0.00 0.00 52 1023.2
20230126203004 52 273 0.0 0.0 0.00 0.00 0.00 53 1023.2
20230126202508 52 309 0.0 0.0 0.00 0.00 0.00 51 1023.3
20230126202021 52 344 0.0 0.0 0.00 0.00 0.00 54 1023.3
20230126201526 52 348 0.0 0.0 0.00 0.00 0.00 53 1023.3
20230126201030 52 336 0.0 0.0 0.00 0.00 0.00 52 1023.5
20230126200023 52 326 0.0 0.0 0.00 0.00 0.00 52 1023.5
20230126195529 51 296 0.0 0.0 0.00 0.00 0.00 51 1023.7
20230126195032 52 309 0.0 0.0 0.00 0.00 0.00 51 1023.7
20230126194538 52 21 0.0 0.0 0.00 0.00 0.00 53 1023.7
20230126194042 51 285 0.0 0.0 0.00 0.00 0.00 53 1023.8
20230126193554 51 338 0.0 0.0 0.00 0.00 0.00 55 1023.8
20230126193053 51 5 0.0 0.0 0.00 0.00 0.00 53 1023.8
20230126192558 51 330 0.0 0.0 0.00 0.00 0.00 52 1024.2
20230126192101 51 310 0.0 0.0 0.00 0.00 0.00 54 1024.2
20230126191505 51 10 0.0 0.0 0.00 0.00 0.00 53 1024.2
20230126191021 51 347 0.0 0.0 0.00 0.00 0.00 55 1024.6
20230126190502 51 5 0.0 0.0 0.00 0.00 0.00 57 1024.6
20230126190002 51 333 0.0 0.0 0.00 0.00 0.00 57 1024.6
20230126185520 50 279 0.0 0.0 0.00 0.00 0.00 57 1025.1
20230126185022 50 5 0.0 0.0 0.00 0.00 0.00 57 1025.1
20230126184527 50 343 0.0 0.0 0.00 0.00 0.00 57 1025.1
20230126184030 50 318 0.0 0.0 0.00 0.00 0.00 57 1025.4
20230126183537 50 355 0.0 0.0 0.00 0.00 0.00 57 1025.4
20230126183041 50 323 0.0 0.0 0.00 0.00 0.00 58 1025.4
20230126182546 50 304 0.0 0.0 0.00 0.00 0.00 58 1025.7
20230126182050 49 273 0.0 0.0 0.00 0.00 0.00 58 1025.7
20230126181554 49 276 0.0 0.0 0.00 0.00 0.00 61 1025.7
20230126181058 49 348 0.0 0.0 0.00 0.00 0.00 62 1026.0
20230126180100 48 40 0.0 0.0 0.00 0.00 0.00 63 1026.0
20230126175556 48 9 0.0 0.0 0.00 0.00 0.00 61 1026.4
20230126175003 48 342 0.0 0.0 0.00 0.00 0.00 62 1026.4
20230126174518 48 355 0.0 0.0 0.00 0.00 0.00 64 1026.4
20230126174022 48 325 0.0 0.0 0.00 0.00 0.00 66 1026.7
20230126173522 47 341 0.0 0.0 0.00 0.00 0.00 65 1026.7
20230126173019 47 355 0.0 0.0 0.00 0.00 0.00 65 1026.7
20230126172531 47 33 0.0 0.0 0.00 0.00 0.00 67 1027.0
20230126172034 47 19 0.0 0.0 0.00 0.00 0.00 67 1027.0
20230126171541 46 342 0.0 0.0 0.00 0.00 0.00 67 1027.0
20230126171044 46 28 0.0 0.0 0.00 0.00 0.00 66 1027.2
20230126170038 45 5 0.0 0.0 0.00 0.00 0.00 67 1027.2
20230126165542 45 10 0.0 0.0 0.00 0.00 0.00 69 1027.1
20230126165046 45 17 0.0 0.0 0.00 0.00 0.00 68 1027.1
20230126164553 45 338 0.0 0.0 0.00 0.00 0.00 70 1027.1
20230126164056 44 329 0.0 0.0 0.00 0.00 0.00 71 1027.1
20230126163602 44 15 0.0 0.0 0.00 0.00 0.00 70 1027.1
20230126163003 43 350 0.0 0.0 0.00 0.00 0.00 73 1027.1
20230126162510 43 14 0.0 0.0 0.00 0.00 0.00 73 1027.1
20230126162010 43 5 0.0 0.0 0.00 0.00 0.00 74 1027.1
20230126161525 43 5 0.0 0.0 0.00 0.00 0.00 76 1027.1
20230126161028 43 19 0.0 0.0 0.00 0.00 0.00 77 1026.8
20230126160025 42 345 0.0 0.0 0.00 0.00 0.00 79 1026.8
20230126155529 42 5 0.0 0.0 0.00 0.00 0.00 80 1026.9
20230126155033 41 334 0.0 0.0 0.00 0.00 0.00 81 1026.9
20230126154536 41 349 0.0 0.0 0.00 0.00 0.00 82 1026.9
20230126154040 40 325 0.0 0.0 0.00 0.00 0.00 82 1026.6